Location: Passau
(48.5830°N, 13.4830°E)
Time: 06:07:29
(UTC+02:00)

Vanguard 1 - Pass Details

Date: 27 July 2021
Orbit: 652 x 3831 km, 34.3° (Epoch: 16 September)

Event Time Altitude Azimuth Distance (km) Brightness Sun altitude
Rises 15:46:01 0° 254° (WSW) 4,036 13.9 47.3°
Reaches altitude 10° 15:48:33 10° 245° (WSW) 3,369 13.8 47.0°
Maximum altitude 15:56:26 36° 182° (S) 2,737 13.1 45.8°
Drops below altitude 10° 16:09:44 10° 124° (SE) 5,688 13.8 43.8°
Sets 16:15:37 0° 118° (ESE) 7,179 14.2 42.9°
